GW0368 Weather Reports


time (UTC)temp
C
wind
direction
speed
KPH
gust
KPH
rain 1hr
cm
rain 24hr
cm
rain mn
cm
humidity
%
barometer
mb
20260503050005 8 184 0.0 3.2 0.00 1.04 0.00 92 1016.1
20260503044522 8 182 0.0 1.6 0.00 1.04 0.00 92 1016.1
20260503043059 8 182 0.0 0.0 0.00 1.04 0.00 91 1016.0
20260503041545 8 182 0.0 3.2 0.00 1.04 0.00 92 1015.9
20260503040047 8 165 0.0 1.6 0.00 1.04 1.04 92 1015.8
20260503034546 8 165 0.0 0.0 0.00 1.04 1.04 91 1015.7
20260503033050 8 165 0.0 1.6 0.00 1.04 1.04 91 1015.6
20260503031536 9 165 0.0 0.0 0.00 1.04 1.04 91 1015.5
20260503030006 9 165 0.0 0.0 0.00 1.04 1.04 91 1015.4
20260503024519 9 165 0.0 0.0 0.00 1.04 1.04 91 1015.3
20260503023029 9 165 0.0 0.0 0.00 1.04 1.04 91 1015.3
20260503021521 9 165 0.0 0.0 0.00 1.04 1.04 91 1015.5
20260503020100 9 165 0.0 0.0 0.00 1.04 1.04 90 1015.3
20260503014628 10 165 0.0 0.0 0.00 1.04 1.04 90 1015.2
20260503013046 10 165 0.0 0.0 0.00 1.04 1.04 90 1015.2
20260503011630 10 165 0.0 0.0 0.00 1.04 1.04 90 1014.8
20260503010031 11 165 0.0 0.0 0.00 1.04 1.04 90 1014.4
20260503004523 11 165 0.0 0.0 0.00 1.04 1.04 91 1014.2
20260503003035 11 165 0.0 1.6 0.00 1.04 1.04 90 1014.1
20260503001538 11 165 0.0 0.0 0.00 1.04 1.04 90 1013.7
20260503000041 11 165 0.0 1.6 0.00 1.04 1.04 90 1013.5
20260502234537 11 165 0.0 1.6 0.00 1.04 1.04 90 1013.3
20260502233031 11 127 0.0 0.0 0.03 1.04 1.04 90 1013.2
20260502231539 11 127 0.0 0.0 0.03 1.04 1.04 90 1013.2
20260502230043 11 127 0.0 0.0 0.03 1.04 1.04 90 1013.2
20260502224549 11 127 0.0 0.0 0.03 1.04 1.04 90 1013.2
20260502223100 11 94 0.0 1.6 0.00 1.02 1.02 90 1013.1
20260502221551 11 94 0.0 3.2 0.00 1.02 1.02 90 1013.0
20260502220037 11 94 0.0 4.8 0.00 1.02 1.02 90 1013.0
20260502214548 11 350 0.0 3.2 0.00 1.02 1.02 90 1012.9
20260502213042 11 50 1.6 4.8 0.00 1.02 1.02 89 1013.0
20260502211528 11 34 1.6 8.0 0.00 1.02 1.02 90 1013.0
20260502210041 11 78 0.0 8.0 0.00 1.02 1.02 90 1013.0
20260502204517 11 86 3.2 9.7 0.00 1.02 1.02 89 1013.0
20260502203023 11 84 1.6 9.7 0.03 1.02 1.02 90 1013.1
20260502201508 11 109 1.6 8.0 0.03 1.02 1.02 90 1013.0
20260502200007 11 36 4.8 12.9 0.03 1.02 1.02 90 1013.1
20260502194508 11 55 1.6 9.7 0.03 1.02 1.02 90 1013.4
20260502193050 11 60 3.2 8.0 0.00 0.99 0.99 90 1013.4
20260502191537 11 44 1.6 6.4 0.03 0.99 0.99 90 1013.6
20260502190041 10 65 1.6 16.1 0.03 1.07 0.99 90 1013.6
20260502184604 10 60 3.2 9.7 0.05 1.07 0.99 90 1013.6
20260502183003 10 80 4.8 14.5 0.08 1.07 0.99 90 1013.5
20260502181515 10 76 4.8 11.3 0.05 1.04 0.97 90 1014.1
20260502180107 10 62 4.8 16.1 0.08 1.04 0.97 90 1013.8
20260502163058 10 76 4.8 19.3 0.13 0.91 0.84 90 1015.0
20260502161540 10 76 1.6 9.7 0.10 0.86 0.79 90 1015.2
20260502151528 11 64 4.8 11.3 0.15 0.76 0.69 90 1014.9
20260502123104 11 142 1.6 6.4 0.18 0.43 0.36 90 1013.4
20260502121535 11 278 3.2 8.0 0.18 0.38 0.30 90 1013.3
20260502114552 11 311 4.8 12.9 0.20 0.30 0.23 90 1013.2